Simultaneous Nadir Overpasses (SNOs) Predictions

Prediction of SNOs between AQUA and METOP-A Satellite Orbit:

Table of predicted SNOs for the next 14.0 days since TLE Epoch: 5/31/2014
Index Date (AQUA) Time (AQUA) Lat,Lon (AQUA) SZA (AQUA ) Date (METOP-A) Time (METOP-A) Lat,Lon (METOP-A) SZA (METOP-A ) Distance(km) Time Diff (sec)
1 06/02/2014 17:59:42 -73.88, 84.32 128.38 06/02/2014 17:59:13 -73.89, 84.42 128.37 3.12 29
2 06/02/2014 18:49:11 73.95,-108.19 51.69 06/02/2014 18:49:52 73.95,-108.09 51.70 3.27 41
3 06/05/2014 13:33:57 -73.84, 150.85 128.75 06/05/2014 13:33:36 -73.85, 150.74 128.73 3.74 21
4 06/05/2014 14:23:26 73.91, -41.67 51.33 06/05/2014 14:24:15 73.91, -41.78 51.33 3.20 49
5 06/08/2014 08:18:36 73.26, 50.86 50.38 06/08/2014 08:17:29 73.24, 48.42 50.45 78.28 67
6 06/08/2014 09:08:13 -73.86,-142.77 129.00 06/08/2014 09:07:58 -73.86,-142.82 128.99 1.63 15
7 06/08/2014 09:57:42 73.94, 24.69 51.09 06/08/2014 09:58:37 73.92, 24.65 51.06 2.84 55
8 06/11/2014 03:52:55 73.52, 116.76 50.43 06/11/2014 03:51:45 73.49, 115.40 50.45 43.09 70
9 06/11/2014 04:42:27 -73.85, -76.32 129.23 06/11/2014 04:42:19 -73.86, -76.40 129.21 2.83 8
10 06/11/2014 05:31:56 73.93, 91.14 50.86 06/11/2014 05:32:58 73.91, 91.06 50.84 3.04 62
11 06/13/2014 23:27:15 73.79,-177.40 50.55 06/13/2014 23:26:02 73.73,-177.61 50.51 9.53 73
12 06/14/2014 00:16:42 -73.86, -9.90 129.39 06/14/2014 00:16:41 -73.86, -9.98 129.38 2.62 1




NCC Satellite Simultaneous Nadir Overpasses (SNOs) Prediction Service
